Wetbulb
58.06 56.75 56.10 56.01 55.23 53.40 53.32 53.96 55.42 56.13 56.40 56.21 56.42 56.86 57.72 57.85 57.58 57.21 55.66 54.92 55.15 55.59
56.04 56.06 54.31 53.92 55.02 53.55 54.23 54.12 54.45 54.48 54.62 54.51 54.58 54.95 55.37 54.85 54.64 55.51 54.96 54.25 55.20 54.74
55.20 55.35 55.20 55.19 54.54 54.35 53.99 54.10 53.67 53.64 53.85 53.70 53.68 53.52 52.55 52.17 53.34 53.79 53.52 53.71 53.64 52.37
54.23 54.47 54.60 54.29 53.87 53.74 53.77 53.60 53.14 52.94 52.59 52.17 52.03 52.48 52.61 52.27 51.91 51.37 51.27 50.97 50.21 50.52
54.46 54.14 53.85 53.37 53.16 53.38 52.89 52.81 52.52 52.01 51.58 51.36 51.32 51.47 50.78 50.06 50.15 49.97 49.61 49.82 50.59 50.23
54.23 53.80 53.62 53.46 53.13 52.86 52.70 52.27 51.87 51.74 51.26 50.96 51.06 50.31 50.46 50.23 49.69 49.63 49.52 49.88 49.97 50.06
53.73 53.61 53.16 52.97 52.80 52.55 52.24 51.75 51.49 51.46 51.19 50.97 50.97 50.60 49.94 49.70 49.73 49.76 49.95 50.72 50.90 50.70
53.89 53.70 53.23 52.76 52.52 52.33 52.08 51.96 51.83 51.13 50.71 50.84 50.74 50.29 50.39 50.63 50.09 50.04 50.58 51.23 51.08 51.37
53.54 52.91 52.91 53.05 52.70 52.63 52.41 52.24 51.68 51.08 50.78 50.44 50.36 45.84 46.12 48.35 50.97 50.04 50.44 50.07 50.75 51.30
53.60 52.96 52.99 53.26 53.07 52.80 52.87 52.83 51.87 50.98 51.22 51.04 51.33 46.36 45.96 46.32 51.06 50.20 50.29 49.96 50.05 49.63
53.69 53.07 53.27 53.33 53.25 53.33 52.95 52.37 51.65 51.34 51.21 51.24 51.04 47.37 45.82 46.39 49.43 50.14 50.13 49.94 50.03 49.31
54.02 53.40 53.22 52.57 53.24 53.75 52.44 51.57 50.80 51.24 50.89 50.54 51.33 47.42 45.80 46.17 49.09 49.57 49.19 50.27 50.14 48.52
55.06 53.95 53.40 53.37 53.36 53.60 52.46 51.48 50.83 50.83 51.22 49.68 51.37 46.67 44.95 46.21 49.40 49.09 48.79 50.53 49.39 47.53
55.24 54.57 54.45 53.83 53.48 52.37 51.32 50.85 50.90 50.56 51.05 51.13 50.88 50.63 44.60 44.42 49.20 49.23 48.67 48.49 48.41 48.69
MSLP
1019.44 1019.69 1020.29 1020.77 1021.10 1021.50 1021.63 1021.72 1021.88 1021.82 1022.01 1022.13 1022.07 1021.93 1021.82 1021.63 1021.79 1021.76 1021.73 1021.55 1021.37 1021.21
1019.77 1020.02 1020.52 1021.01 1021.23 1021.44 1021.74 1021.82 1022.09 1022.15 1022.14 1022.29 1022.34 1022.25 1022.14 1022.02 1022.08 1021.92 1021.90 1021.92 1021.73 1021.55
1019.99 1020.26 1020.54 1020.82 1021.10 1021.35 1021.69 1021.86 1022.00 1022.09 1022.13 1022.26 1022.36 1022.35 1022.55 1022.33 1022.28 1022.15 1022.05 1022.03 1021.92 1021.80
1020.07 1020.39 1020.68 1020.92 1021.20 1021.45 1021.64 1021.76 1021.90 1021.94 1022.10 1022.23 1022.43 1022.42 1022.35 1022.38 1022.31 1022.30 1022.32 1022.39 1022.27 1022.00
1019.99 1020.34 1020.61 1020.90 1021.20 1021.41 1021.63 1021.80 1021.89 1022.02 1022.14 1022.34 1022.42 1022.49 1022.42 1022.34 1022.26 1022.30 1022.28 1022.20 1021.89 1021.70
1019.82 1019.96 1020.25 1020.69 1020.99 1021.24 1021.50 1021.77 1021.99 1022.11 1022.16 1022.21 1022.28 1022.29 1022.27 1022.20 1022.35 1022.32 1022.12 1021.96 1021.78 1021.59
1019.71 1020.03 1020.22 1020.43 1020.64 1020.95 1021.29 1021.57 1021.80 1021.88 1021.99 1022.10 1022.12 1022.15 1022.20 1022.27 1022.35 1022.17 1021.98 1021.88 1021.68 1021.37
1019.22 1019.70 1020.16 1020.27 1020.44 1020.74 1021.03 1021.26 1021.50 1021.65 1021.77 1021.94 1021.96 1022.06 1022.30 1022.28 1022.13 1021.90 1021.69 1021.44 1021.35 1021.10
1018.79 1019.24 1019.66 1019.89 1020.03 1020.32 1020.54 1020.80 1021.07 1021.25 1021.42 1021.58 1021.73 1022.36 1022.46 1022.31 1021.91 1021.83 1021.48 1021.23 1021.15 1021.01
1018.07 1018.43 1018.97 1019.39 1019.49 1019.52 1019.92 1020.29 1020.67 1020.89 1021.08 1021.10 1021.42 1021.98 1022.26 1021.92 1021.64 1021.51 1021.27 1020.99 1020.89 1020.82
1017.24 1017.63 1018.07 1018.58 1019.05 1019.06 1019.36 1019.78 1020.26 1020.50 1020.62 1020.82 1021.10 1021.44 1021.69 1021.58 1021.51 1021.44 1021.12 1020.85 1020.83 1021.02
1016.32 1016.80 1017.32 1017.75 1018.23 1018.62 1018.92 1019.42 1019.80 1020.14 1020.24 1020.34 1020.69 1021.08 1021.06 1021.29 1021.27 1020.94 1020.77 1020.47 1020.84 1021.04
1015.29 1016.04 1016.47 1017.14 1017.58 1018.14 1018.42 1018.82 1019.07 1019.63 1019.98 1019.99 1020.20 1020.49 1020.57 1020.86 1020.75 1020.44 1020.19 1020.23 1020.71 1020.83
1014.40 1015.25 1015.73 1016.51 1017.07 1017.58 1017.85 1018.09 1018.57 1019.09 1019.39 1019.43 1019.74 1019.74 1019.96 1020.59 1020.51 1020.15 1019.87 1019.87 1020.37 1020.51
Wind_Speed
11 8 7 7 6 5 4 4 4 5 5 5 5 5 5 4 4 4 4 7 6 5
9 9 9 9 7 6 6 5 5 5 6 6 6 6 6 5 5 5 5 5 6 4
9 9 9 8 7 7 6 6 6 6 6 6 6 6 6 5 6 6 5 4 6 5
10 10 9 8 7 7 7 6 6 6 6 6 5 6 5 5 5 6 6 6 6 7
10 10 9 8 7 7 6 5 5 5 5 4 5 5 5 5 5 5 5 5 6 6
10 10 10 10 9 8 7 5 4 4 4 4 4 4 5 5 5 4 4 5 6 6
10 10 9 10 9 8 7 6 5 4 3 3 3 3 5 4 4 5 5 6 7 7
11 10 10 10 10 9 8 6 5 5 4 3 2 2 3 3 4 5 7 7 7 6
12 12 12 11 11 9 7 6 5 5 4 5 3 4 3 4 3 5 6 7 8 8
13 13 12 11 11 10 7 6 5 5 6 6 5 7 8 5 3 4 4 5 7 9
14 13 13 12 11 9 7 7 5 5 5 4 5 8 11 7 4 5 5 4 6 6
15 14 13 13 12 9 8 7 6 5 5 4 5 8 10 8 8 6 5 4 3 5
16 15 15 13 12 10 8 8 6 6 6 3 7 7 9 9 6 6 4 2 3 3
17 16 14 13 11 11 10 8 7 7 7 7 7 6 8 11 8 6 4 4 3 4
Wind_Direction
126 128 123 126 128 122 110 100 80 74 72 61 48 41 35 39 27 16 14 4 357 343
126 129 127 130 133 126 129 115 104 92 79 63 56 47 43 47 32 22 14 359 345 336
134 133 134 140 129 125 124 124 116 100 81 68 56 54 44 34 23 17 13 358 342 343
146 146 145 142 137 132 129 120 105 88 83 74 66 52 50 47 30 18 7 359 348 337
148 151 146 142 139 142 134 131 124 114 105 100 83 76 63 50 36 14 358 341 336 330
167 164 158 154 151 153 151 145 145 147 122 103 95 71 51 38 24 359 342 328 312 309
178 176 169 163 161 162 164 164 168 158 133 115 90 63 41 32 12 358 349 335 322 317
180 176 175 173 169 166 171 171 172 169 169 170 165 75 18 19 8 354 341 343 330 325
181 180 184 181 175 173 170 170 182 196 203 204 211 149 232 281 350 331 344 341 343 341
188 186 188 189 186 181 182 180 208 224 225 222 233 197 228 208 271 318 334 347 343 339
196 192 189 192 202 187 179 192 212 234 230 236 247 207 220 208 265 280 301 334 343 1
199 196 194 199 202 195 181 187 198 227 216 215 257 219 202 190 234 250 279 344 347 353
196 200 199 203 200 192 190 194 194 214 216 195 248 189 194 195 238 246 264 310 260 319
195 199 197 199 195 189 188 188 200 216 215 221 244 224 184 202 234 249 265 308 251 266